Regional Weather Roundup
Issued by NWS Cleveland, OH

Home | Current Version | Previous Version | Graphics & Text | Print | Product List | Glossary On
Versions: 1 2 3 4 5 6 7 8 9 10 11 12 13 14 15 16 17 18 19 20 21 22 23 24 25 26 27 28 29 30 31 32 33 34 35 36 37 38 39 40 41 42 43 44 45 46 47 48 49 50
000
ASUS41 KCLE 221302
RWRCLE
OHIO REGIONAL WEATHER ROUNDUP
NATIONAL WEATHER SERVICE CLEVELAND, OH
900 AM EDT TUE MAY 22 2018

NOTE: "FAIR" INDICATES FEW OR NO CLOUDS BELOW 12,000 FEET WITH NO
SIGNIFICANT WEATHER AND/OR OBSTRUCTIONS TO VISIBILITY.

OHZ001>008-015>018-024>027-034-035-043-044-221400-
   NORTHWEST OHIO

CITY           SKY/WX    TMP DP  RH WIND       PRES   REMARKS
DEFIANCE       CLOUDY    63  61  93 SW5       30.01R
FINDLAY        CLOUDY    71  67  87 SW8       30.01S
TOLEDO EXPRESS CLOUDY    63  63 100 W8        29.99S FOG
TOLEDO EXEC    CLOUDY    66  63  90 SW5       30.00S
LIMA           PTSUNNY   68  67  96 SW7       30.03R
$$

OHZ009>014-019>023-028>033-038-089-221400-
   NORTHEAST OHIO

CITY           SKY/WX    TMP DP  RH WIND       PRES   REMARKS
CLE-HOPKINS    CLOUDY    69  65  86 SW10      30.03R
CLE-LAKEFRONT  CLOUDY    70  63  78 S13       29.99S
CUY CO. ARPT   CLOUDY    72  66  83 SW12      30.02R
LORAIN-ELYRIA  RAIN      67  60  78 W9        30.02R
ASHTABULA      FAIR      67  65  93 SW12      30.02S
AKRON-CANTON   CLOUDY    66  62  87 SW9       30.05R
WOOSTER        CLOUDY    66  64  93 SW8       30.04S
MANSFIELD      CLOUDY    68  66  93 SW12      30.04R
YOUNGSTOWN     CLOUDY    65  64  97 S8        30.03S
$$

OHZ042-051>053-060>062-070>072-077>081-221400-
  SOUTHWEST OHIO

CITY           SKY/WX    TMP DP  RH WIND       PRES   REMARKS
CINC-COVINGTON PTSUNNY   69  67  93 SW6       30.06R
CINC-LUNKEN    CLOUDY    71  70  96 S6        30.06S
HAMILTON       CLOUDY    70  69  97 CALM      30.06S
DAYTON         CLOUDY    68  68 100 SW9       30.06S
WRIGHT-PAT AFB CLOUDY    69  66  90 SW8       30.05S
DAYTON GENERAL CLOUDY    70  66  87 S7        30.06R
WILMINGTON     CLOUDY    69  69 100 SW8       30.06S
$$

OHZ036-037-039>041-045>050-054>059-063>069-073>076-082>088-221400-
  CENTRAL AND SOUTHEAST OHIO

CITY           SKY/WX    TMP DP  RH WIND       PRES   REMARKS
COLUMBUS       CLOUDY    69  66  90 SW8       30.05R
OSU AIRPORT    CLOUDY    69  66  90 SW8       30.05R
BOLTON FIELD   PTSUNNY   68  66  94 SW9G17    30.06S
RICKENBACK AFB CLOUDY    67  67 100 MISG      30.05F
NEWARK         CLOUDY    68  66  93 SW7       30.05S
MARION         CLOUDY    69  66  90 SW10      30.05R
LANCASTER      CLOUDY    68  66  93 SW3       30.07R
ZANESVILLE     CLOUDY    67  65  93 S7        30.06S
NEW PHILLY     NOT AVBL
$$



USA.gov is the U.S. government's official web portal to all federal, state and local government web resources and services.